Terminal Aerodrome Forecast
Issued by NWS Blacksburg, VA

Current Version | Previous Version | Graphics & Text | Print | Product List | Glossary On
Versions: 1 2 3 4 5 6 7 8 9 10 11 12 13 14 15 16 17 18 19 20 21 22 23 24
000
FTUS41 KRNK 121725
TAFBLF
TAF
KBLF 121725Z 1218/1318 25004KT P6SM BKN040
     FM122200 23007KT P6SM BKN050
     FM130600 24007KT P6SM BKN025 BKN040
     FM131300 26010KT P6SM SCT020 BKN040=

USA.gov is the U.S. government's official web portal to all federal, state and local government web resources and services.